Regional Weather Roundup
Issued by NWS Green Bay, WI

Home | Current Version | Previous Version | Text Only | Print | Product List | Glossary On
Versions: 1 2 3 4 5 6 7 8 9 10 11 12 13 14 15 16 17 18 19 20 21 22 23 24 25 26 27 28 29 30 31 32 33 34 35 36 37 38 39 40 41 42 43 44 45 46 47 48 49 50
000
ASUS43 KGRB 261110
RWRGRB

NORTH-CENTRAL AND NORTHEAST WISCONSIN REGIONAL WEATHER ROUNDUP
NATIONAL WEATHER SERVICE GREEN BAY WI
600 AM CDT SUN APR 26 2015

WIZ005-009-010>012-018-019-261200-
NORTH CENTRAL WISCONSIN

CITY           SKY/WX    TMP DP  RH WIND       PRES   REMARKS
IRONWOOD       CLEAR     23  21  93 CALM      30.06R
MANITOWISH WTR CLEAR     22  21  93 CALM      30.05S
ARBOR VITAE    CLEAR     25  20  79 CALM      30.05R
EAGLE RIVER    CLEAR     24  19  82 CALM      30.04R
LAND O LAKES   CLEAR     22  20  93 CALM      30.06R
RHINELANDER    CLEAR     27  20  75 CALM      30.04S
PHILLIPS       CLEAR     26  19  74 CALM      30.05R
ANTIGO         CLEAR     27  21  78 N7        30.04R
TOMAHAWK       CLEAR     24  20  85 CALM      30.05S
MERRILL        CLEAR     28  22  76 CALM      30.04S
$$

WIZ013-073-261200-
NORTHEAST WISCONSIN

CITY           SKY/WX    TMP DP  RH WIND       PRES   REMARKS
IRON MOUNTAIN  CLEAR     26  19  74 CALM      30.03R
MARINETTE      CLEAR     30  18  59 NW3       30.03R
OCONTO         CLEAR     28  20  71 CALM      30.04R
$$

WIZ017-030-035>037-045-261200-
CENTRAL WISCONSIN

CITY           SKY/WX    TMP DP  RH WIND       PRES   REMARKS
MEDFORD        CLEAR     29  21  72 NE7       30.03S
WAUSAU         CLEAR     32  20  61 CALM      30.03R
MOSINEE        CLEAR     32  19  59 N8        30.04R
MARSHFIELD     CLEAR     32  21  64 NE8       30.03R
WISC RAPIDS    CLEAR     33  19  56 NE5       30.05R
STEVENS POINT  CLEAR     25  19  77 CALM      30.04R
WAUPACA        CLEAR     29  22  73 N3        30.04R
SHAWANO        CLEAR     35  20  54 CALM      30.04S
CLINTONVILLE   CLEAR     32  19  59 CALM      30.03S
$$

WIZ038-039-048-051-261200-
FOX VALLEY

CITY           SKY/WX    TMP DP  RH WIND       PRES   REMARKS
NWS GREEN BAY  CLEAR     33  21  61 N6        30.03R
APPLETON       CLEAR     28  19  69 N8        30.03R
OSHKOSH        CLEAR     31  22  69 N7        30.02R
FOND DU LAC    CLEAR     36  25  64 NE8       30.01S
$$

WIZ022-050-052-261200-
EAST CENTRAL WISCONSIN

CITY           SKY/WX    TMP DP  RH WIND       PRES   REMARKS
STURGEON BAY   CLEAR     34  23  64 NW5       30.04R
MANITOWOC      CLEAR     33  28  81 NW8       30.02R
SHEBOYGAN      CLEAR     34  24  67 N7        30.00S
$$

LMZ563-521-522-541>543-261200-
LAKESHORE

STATION/POSITION TIME  TEMP    WIND        PRES    VSBY  WAVE
                       AIR SEA DIR/SP/G                  HT/PER
                 (UTC) (F)     (DEG/KT/KT) (MB)    (MI)  (FT/S)
SHEBOYGAN LKSHOR 1100   37     340/ 10/ 12 1016.8R
KEWAUNEE LKSHORE 1100   32     300/  6/  8 1015.8R
NORTHPORT PIER   1100   37     330/  9/ 10 1016.6R
SISTER BAY LKSHO 1000   36      10/  6/  9   N/A
CHAMBERS ISLAND  1100   36     330/ 10/ 11 1016.9R
MENOMINEE LKSHOR 1100   35     320/  9/ 11 1017.3S
$$



USA.gov is the U.S. government's official web portal to all federal, state and local government web resources and services.